Weather History for Ironwood, MI

Change the Weather History Date:

Sunday, March 3, 2013

  Actual Average Record
Temperature  
Mean Temperature 6 °F -  
Max Temperature 26 °F 26 °F 37 °F (2004)
Min Temperature -13 °F 9 °F -25 °F (2014)
Degree Days  
Heating Degree Days 58    
Moisture  
Dew Point -2 °F    
Average Humidity 69    
Maximum Humidity 100    
Minimum Humidity 46    
Precipitation  
Precipitation 0.00 in - - ()
Sea Level Pressure  
Sea Level Pressure 30.08 in    
Wind  
Wind Speed 1 mph (NE)    
Max Wind Speed 9 mph    
Max Gust Speed -    
Visibility 10 miles    
Events      
Averages and records for this station are not official NWS values.
T = Trace of Precipitation, MM = Missing Value Source: NWS Daily Summary

Daily Weather History Graph

Daily Weather History Graph

Search for Another Location

Airport:

Trip Planner

Search our weather history database for the weather conditions in past years. The results will help you decide how hot, cold, wet, or windy it might be!

Date:

Astronomy

Mar. 03, 2013 Rise Set
Actual Time 6:35 AM CST 5:49 PM CST
Civil Twilight 6:05 AM CST 6:20 PM CST
Nautical Twilight 5:30 AM CST 6:54 PM CST
Astronomical Twilight 4:55 AM CST 7:30 PM CST
Moon No Moon Rise 9:27 AM CST (3/3)
Length of Visible Light 12h 14m
Length of Day
11h 14m
Waning Gibbous, 63% of the Moon is Illuminated
Mar 3
Waning Gibbous
Mar 4
Last Quarter
Mar 11
New
Mar 19
First Quarter
Mar 27
Full

Hourly Weather History & Observations

Time (CST) Temp. Windchill Dew Point Humidity Pressure Visibility Wind Dir Wind Speed Gust Speed Precip Events Conditions
12:15 AM -2.2 °F - -9.4 °F 71% 30.13 in 10.0 mi Calm Calm - N/A   Clear
12:35 AM -2.2 °F - -9.4 °F 71% 30.13 in 10.0 mi Calm Calm - N/A   Clear
12:55 AM -2.2 °F - -9.4 °F 71% 30.13 in 10.0 mi Calm Calm - N/A   Clear
1:15 AM -5.8 °F - -14.8 °F 65% 30.13 in 10.0 mi Calm Calm - N/A   Clear
1:35 AM -7.6 °F - -13.0 °F 77% 30.12 in 10.0 mi Calm Calm - N/A   Clear
1:55 AM -5.8 °F - -9.4 °F 84% 30.12 in 10.0 mi Calm Calm - N/A   Clear
2:15 AM -7.6 °F - -14.8 °F 71% 30.12 in 10.0 mi Calm Calm - N/A   Clear
2:35 AM -7.6 °F - -14.8 °F 71% 30.12 in 10.0 mi Calm Calm - N/A   Clear
3:15 AM -9.4 °F - -16.6 °F 71% 30.11 in 10.0 mi Calm Calm - N/A   Clear
3:35 AM -9.4 °F - -16.6 °F 71% 30.11 in 10.0 mi Calm Calm - N/A   Clear
3:55 AM -9.4 °F - -14.8 °F 77% 30.12 in 10.0 mi Calm Calm - N/A   Clear
4:15 AM -9.4 °F - -16.6 °F 71% 30.12 in 10.0 mi Calm Calm - N/A   Clear
4:35 AM -11.2 °F -20.6 °F -18.4 °F 70% 30.12 in 10.0 mi ENE 3.5 mph - N/A   Clear
4:55 AM -11.2 °F - -20.2 °F 64% 30.11 in 10.0 mi Calm Calm - N/A   Clear
5:15 AM -11.2 °F - -14.8 °F 84% 30.11 in 10.0 mi Calm Calm - N/A   Clear
5:35 AM -11.2 °F - -18.4 °F 70% 30.12 in 10.0 mi Calm Calm - N/A   Clear
5:55 AM -11.2 °F - -20.2 °F 64% 30.12 in 10.0 mi Calm Calm - N/A   Clear
6:15 AM -9.4 °F - -9.4 °F 100% 30.13 in 10.0 mi Calm Calm - N/A   Clear
6:35 AM -11.2 °F - -22.0 °F 59% 30.12 in 10.0 mi Calm Calm - N/A   Clear
6:55 AM -13.0 °F - -23.8 °F 59% 30.12 in 10.0 mi Calm Calm - N/A   Clear
7:15 AM -11.2 °F - -11.2 °F 100% 30.12 in 10.0 mi Calm Calm - N/A   Clear
7:35 AM -9.4 °F - -16.6 °F 71% 30.12 in 10.0 mi Calm Calm - N/A   Clear
8:35 AM -0.4 °F - -0.4 °F 100% 30.12 in 10.0 mi Calm Calm - N/A   Clear
8:55 AM 3.2 °F - -0.4 °F 85% 30.12 in 10.0 mi Calm Calm - N/A   Clear
9:15 AM 8.6 °F - 3.2 °F 79% 30.11 in 10.0 mi Calm Calm - N/A   Clear
9:35 AM 12.2 °F - 6.8 °F 79% 30.11 in 10.0 mi Calm Calm - N/A   Clear
10:55 AM 21.2 °F - 8.6 °F 58% 30.09 in 10.0 mi Calm Calm - N/A   Clear
11:15 AM 21.2 °F - 8.6 °F 58% 30.08 in 10.0 mi Calm Calm - N/A   Clear
11:35 AM 23.0 °F - 6.8 °F 50% 30.08 in 10.0 mi Calm Calm - N/A   Clear
11:55 AM 23.0 °F - 6.8 °F 50% 30.07 in 10.0 mi Calm Calm - N/A   Clear
12:35 PM 24.8 °F 20.5 °F 6.8 °F 46% 30.06 in 10.0 mi SW 3.5 mph - N/A   Clear
2:55 PM 26.6 °F 18.2 °F 10.4 °F 51% 30.04 in 10.0 mi North 8.1 mph - N/A   Clear
3:15 PM 26.6 °F 20.0 °F 10.4 °F 51% 30.03 in 10.0 mi NE 5.8 mph - N/A   Clear
3:35 PM 26.6 °F 20.0 °F 10.4 °F 51% 30.04 in 10.0 mi North 5.8 mph - N/A   Clear
3:55 PM 24.8 °F 16.9 °F 10.4 °F 54% 30.04 in 10.0 mi North 6.9 mph - N/A   Clear
4:15 PM 24.8 °F 16.9 °F 12.2 °F 59% 30.04 in 10.0 mi NNE 6.9 mph - N/A   Clear
4:35 PM 24.8 °F 16.1 °F 12.2 °F 59% 30.04 in 10.0 mi NNE 8.1 mph - N/A   Clear
4:55 PM 24.8 °F 16.1 °F 12.2 °F 59% 30.04 in 10.0 mi NNE 8.1 mph - N/A   Clear
5:15 PM 23.0 °F 13.1 °F 10.4 °F 59% 30.03 in 10.0 mi NNE 9.2 mph - N/A   Clear
5:35 PM 21.2 °F 14.9 °F 12.2 °F 68% 30.04 in 10.0 mi NNE 4.6 mph - N/A   Clear
5:55 PM 21.2 °F - 10.4 °F 63% 30.04 in 10.0 mi Calm Calm - N/A   Clear
6:35 PM 19.4 °F - 10.4 °F 68% 30.04 in 10.0 mi Calm Calm - N/A   Clear
8:15 PM 15.8 °F 7.2 °F 8.6 °F 73% 30.05 in 10.0 mi East 5.8 mph - N/A   Clear
9:15 PM 14.0 °F 3.9 °F 3.2 °F 62% 30.05 in 10.0 mi East 6.9 mph - N/A   Clear
9:35 PM 15.8 °F 7.2 °F 6.8 °F 68% 30.05 in 10.0 mi East 5.8 mph - N/A   Clear
9:55 PM 14.0 °F 8.2 °F 6.8 °F 73% 30.05 in 10.0 mi East 3.5 mph - N/A   Clear
10:15 PM 14.0 °F 6.5 °F 8.6 °F 79% 30.05 in 10.0 mi East 4.6 mph - N/A   Clear
10:35 PM 12.2 °F 4.3 °F 5.0 °F 73% 30.05 in 10.0 mi East 4.6 mph - N/A   Scattered Clouds
10:55 PM 12.2 °F 6.1 °F 6.8 °F 79% 30.05 in 10.0 mi East 3.5 mph - N/A   Overcast
11:15 PM 12.2 °F 4.3 °F 5.0 °F 73% 30.05 in 10.0 mi East 4.6 mph - N/A   Scattered Clouds
11:35 PM 12.2 °F 4.3 °F 3.2 °F 67% 30.05 in 10.0 mi East 4.6 mph - N/A   Mostly Cloudy
11:55 PM 12.2 °F 6.1 °F 5.0 °F 73% 30.05 in 10.0 mi East 3.5 mph - N/A   Scattered Clouds